When you browse on this site, cookies collect data to enhance your experience and personalize the content and advertising you see.
Visit our Privacy Policy to learn more. By continuing to use the site, you agree to this use of cookies and data.
  • En España
  • Lista de países
  • Para 7 días
  • Temperatura del agua
  • El tiempo en el mapa
  • Informadores
  • user-avatar
    Iniciar sesión

    Tiempo cada hora Vila-Real

    Hoy, 28 Mayo, Jueves

    Tiempo Temperatura Precipitaciones Viento Presión Humedad
    00:00 +22°C° 0 mm 1 mps 725 mmHg 60%
    01:00 +21°C° 0 mm 1 mps 725 mmHg 61%
    02:00 +21°C° 0 mm 1 mps 724 mmHg 63%
    03:00 +21°C° 0 mm 1 mps 725 mmHg 65%
    04:00 +21°C° 0 mm 1 mps 725 mmHg 67%
    05:00 +21°C° 0 mm 1 mps 725 mmHg 69%
    06:00 +23°C° 0 mm 1 mps 725 mmHg 61%
    07:00 +25°C° 0 mm 1 mps 725 mmHg 54%
    08:00 +27°C° 0 mm 1 mps 725 mmHg 46%
    09:00 +28°C° 0 mm 2 mps 725 mmHg 42%
    10:00 +30°C° 0 mm 2 mps 725 mmHg 37%
    11:00 +31°C° 0 mm 2 mps 725 mmHg 33%
    12:00 +32°C° 0 mm 2 mps 725 mmHg 30%
    13:00 +32°C° 0 mm 2 mps 725 mmHg 28%
    14:00 +34°C° 0 mm 2 mps 724 mmHg 26%
    15:00 +32°C° 0 mm 2 mps 724 mmHg 31%
    16:00 +31°C° 0 mm 2 mps 724 mmHg 35%
    17:00 +30°C° 0 mm 2 mps 723 mmHg 40%
    18:00 +28°C° 0 mm 2 mps 723 mmHg 44%
    19:00 +26°C° 0 mm 1 mps 723 mmHg 49%
    20:00 +24°C° 0 mm 1 mps 724 mmHg 54%
    21:00 +24°C° 0 mm 1 mps 723 mmHg 56%
    22:00 +23°C° 0 mm 1 mps 723 mmHg 58%
    23:00 +22°C° 0 mm 1 mps 723 mmHg 60%

    Mañana, 29 Mayo, Viernes

    Tiempo Temperatura Precipitaciones Viento Presión Humedad
    00:00 +22°C° 0 mm 1 mps 722 mmHg 62%
    01:00 +22°C° 0 mm 1 mps 722 mmHg 63%
    02:00 +21°C° 0 mm 1 mps 722 mmHg 65%
    03:00 +21°C° 0 mm 1 mps 722 mmHg 65%
    04:00 +21°C° 0 mm 1 mps 722 mmHg 65%
    05:00 +21°C° 0 mm 1 mps 722 mmHg 66%
    06:00 +23°C° 0 mm 1 mps 722 mmHg 57%
    07:00 +26°C° 0 mm 1 mps 722 mmHg 48%
    08:00 +28°C° 0 mm 1 mps 722 mmHg 39%
    09:00 +30°C° 0 mm 1 mps 722 mmHg 36%
    10:00 +31°C° 0 mm 1 mps 722 mmHg 32%
    11:00 +33°C° 0 mm 1 mps 722 mmHg 29%
    12:00 +32°C° 0 mm 1 mps 721 mmHg 31%
    13:00 +32°C° 0 mm 1 mps 721 mmHg 33%
    14:00 +31°C° 0 mm 2 mps 720 mmHg 35%
    15:00 +29°C° 0.1 mm 2 mps 720 mmHg 42%
    16:00 +28°C° 0.1 mm 3 mps 719 mmHg 49%
    17:00 +26°C° 0.1 mm 3 mps 719 mmHg 56%
    18:00 +25°C° 0 mm 2 mps 719 mmHg 59%
    19:00 +24°C° 0 mm 2 mps 719 mmHg 62%
    20:00 +23°C° 0 mm 1 mps 719 mmHg 65%
    21:00 +23°C° 0 mm 1 mps 719 mmHg 64%
    22:00 +22°C° 0 mm 1 mps 719 mmHg 64%
    23:00 +22°C° 0 mm 1 mps 719 mmHg 63%

    Pasado mañana, 30 Mayo, Sábado

    Tiempo Temperatura Precipitaciones Viento Presión Humedad
    00:00 +22°C° 0 mm 1 mps 719 mmHg 64%
    01:00 +21°C° 0 mm 1 mps 719 mmHg 64%
    02:00 +21°C° 0 mm 1 mps 719 mmHg 65%
    03:00 +21°C° 0 mm 1 mps 719 mmHg 65%
    04:00 +21°C° 0 mm 1 mps 719 mmHg 66%
    05:00 +21°C° 0 mm 1 mps 719 mmHg 67%
    06:00 +23°C° 0 mm 1 mps 719 mmHg 61%
    07:00 +25°C° 0 mm 1 mps 719 mmHg 55%
    08:00 +26°C° 0 mm 1 mps 719 mmHg 49%
    09:00 +29°C° 0 mm 1 mps 719 mmHg 43%
    10:00 +31°C° 0 mm 1 mps 719 mmHg 37%
    11:00 +33°C° 0 mm 1 mps 719 mmHg 31%
    12:00 +31°C° 0.3 mm 2 mps 719 mmHg 37%
    13:00 +30°C° 0.3 mm 2 mps 718 mmHg 43%
    14:00 +28°C° 0.3 mm 3 mps 718 mmHg 48%
    15:00 +27°C° 0.4 mm 2 mps 718 mmHg 53%
    16:00 +26°C° 0.4 mm 2 mps 717 mmHg 57%
    17:00 +25°C° 0.4 mm 1 mps 717 mmHg 62%
    18:00 +24°C° 0 mm 1 mps 717 mmHg 63%
    19:00 +23°C° 0 mm 1 mps 717 mmHg 63%
    20:00 +23°C° 0 mm 1 mps 718 mmHg 64%
    21:00 +22°C° 0 mm 1 mps 717 mmHg 64%
    22:00 +22°C° 0 mm 1 mps 717 mmHg 64%
    23:00 +19°C° 0 mm 0 mps 717 mmHg 65%

    31 Mayo, Domingo

    Tiempo Temperatura Precipitaciones Viento Presión Humedad
    00:00 +21°C° 0 mm 1 mps 717 mmHg 64%
    01:00 +21°C° 0 mm 1 mps 717 mmHg 63%
    02:00 +21°C° 0 mm 1 mps 717 mmHg 62%
    03:00 +21°C° 0.1 mm 1 mps 717 mmHg 64%
    04:00 +21°C° 0.1 mm 1 mps 717 mmHg 66%
    05:00 +21°C° 0.1 mm 1 mps 717 mmHg 69%
    06:00 +23°C° 0.1 mm 1 mps 717 mmHg 65%
    07:00 +24°C° 0.1 mm 1 mps 718 mmHg 61%
    08:00 +26°C° 0.1 mm 1 mps 718 mmHg 57%
    09:00 +27°C° 0 mm 1 mps 718 mmHg 50%
    10:00 +29°C° 0 mm 1 mps 718 mmHg 43%
    11:00 +31°C° 0 mm 1 mps 718 mmHg 36%
    12:00 +31°C° 0 mm 1 mps 718 mmHg 35%
    13:00 +31°C° 0 mm 1 mps 718 mmHg 35%
    14:00 +31°C° 0 mm 2 mps 718 mmHg 35%
    15:00 +28°C° 2 mm 2 mps 717 mmHg 49%
    16:00 +25°C° 2 mm 3 mps 717 mmHg 64%
    17:00 +20°C° 2 mm 4 mps 717 mmHg 78%
    18:00 +20°C° 1.2 mm 3 mps 717 mmHg 79%
    19:00 +19°C° 1.2 mm 2 mps 718 mmHg 81%
    20:00 +18°C° 1.2 mm 2 mps 719 mmHg 83%
    21:00 +19°C° 0.1 mm 1 mps 719 mmHg 83%
    22:00 +19°C° 0.1 mm 1 mps 719 mmHg 83%
    23:00 +19°C° 0.1 mm 1 mps 719 mmHg 83%

    1 Junio, Lunes

    Tiempo Temperatura Precipitaciones Viento Presión Humedad
    00:00 +18°C° 0.1 mm 1 mps 718 mmHg 83%
    01:00 +18°C° 0.1 mm 1 mps 718 mmHg 84%
    02:00 +18°C° 0.1 mm 1 mps 718 mmHg 84%
    03:00 +18°C° 0 mm 1 mps 718 mmHg 84%
    04:00 +18°C° 0 mm 1 mps 718 mmHg 84%
    05:00 +18°C° 0 mm 1 mps 718 mmHg 83%
    06:00 +21°C° 0 mm 1 mps 719 mmHg 75%
    07:00 +21°C° 0 mm 0 mps 719 mmHg 66%
    08:00 +24°C° 0 mm 0 mps 720 mmHg 58%
    09:00 +25°C° 0 mm 0 mps 720 mmHg 51%
    10:00 +27°C° 0 mm 0 mps 720 mmHg 45%
    11:00 +31°C° 0 mm 1 mps 720 mmHg 38%
    12:00 +31°C° 0 mm 1 mps 720 mmHg 38%
    13:00 +31°C° 0 mm 2 mps 719 mmHg 37%
    14:00 +31°C° 0 mm 3 mps 719 mmHg 37%
    15:00 +30°C° 0 mm 3 mps 719 mmHg 42%
    16:00 +29°C° 0 mm 3 mps 719 mmHg 47%
    17:00 +28°C° 0 mm 3 mps 719 mmHg 52%
    18:00 +26°C° 0 mm 2 mps 719 mmHg 59%
    19:00 +24°C° 0 mm 2 mps 719 mmHg 65%
    20:00 +22°C° 0 mm 1 mps 719 mmHg 72%
    21:00 +22°C° 0 mm 1 mps 719 mmHg 72%
    22:00 +19°C° 0 mm 0 mps 719 mmHg 73%
    23:00 +19°C° 0 mm 0 mps 719 mmHg 73%

    2 Junio, Martes

    Tiempo Temperatura Precipitaciones Viento Presión Humedad
    00:00 +19°C° 0 mm 0 mps 718 mmHg 74%
    01:00 +18°C° 0 mm 0 mps 718 mmHg 75%
    02:00 +18°C° 0 mm 0 mps 718 mmHg 75%
    03:00 +20°C° 0 mm 1 mps 718 mmHg 76%
    04:00 +20°C° 0 mm 1 mps 718 mmHg 76%
    05:00 +20°C° 0 mm 1 mps 718 mmHg 77%
    06:00 +22°C° 0 mm 1 mps 718 mmHg 69%
    07:00 +25°C° 0 mm 1 mps 718 mmHg 62%
    08:00 +27°C° 0 mm 1 mps 718 mmHg 54%
    09:00 +28°C° 0 mm 1 mps 718 mmHg 49%
    10:00 +29°C° 0 mm 1 mps 718 mmHg 44%
    11:00 +31°C° 0 mm 1 mps 718 mmHg 38%
    12:00 +30°C° 0 mm 2 mps 717 mmHg 38%
    13:00 +30°C° 0 mm 3 mps 716 mmHg 37%
    14:00 +30°C° 0 mm 4 mps 716 mmHg 37%
    15:00 +29°C° 0 mm 4 mps 716 mmHg 40%
    16:00 +28°C° 0 mm 3 mps 715 mmHg 43%
    17:00 +27°C° 0 mm 3 mps 715 mmHg 45%
    18:00 +25°C° 0 mm 2 mps 715 mmHg 54%
    19:00 +23°C° 0 mm 2 mps 715 mmHg 62%
    20:00 +20°C° 0 mm 1 mps 715 mmHg 71%
    21:00 +20°C° 0 mm 1 mps 714 mmHg 72%
    22:00 +20°C° 0 mm 1 mps 714 mmHg 74%
    23:00 +19°C° 0 mm 1 mps 714 mmHg 76%
    Mostrar más